Location: Unspecified
(0.0000°N, 0.0000°E)
Time: 03:35:06
(UTC+00:00)

N. Korean satellite - Pass Details

Date: 20 October 2017
Orbit: 461 x 513 km, 97.2° (Epoch: 15 December)

Event Time Altitude Azimuth Distance (km) Brightness Sun altitude
Rises 19:17:54 0° 203° (SSW) 2,582 10.7 -22.9°
Reaches altitude 10° 19:21:06 10° 234° (SW) 1,682 10.2 -23.7°
Maximum altitude 19:22:35 12° 258° (WSW) 1,540 10.1 -24.0°
Drops below altitude 10° 19:24:05 10° 283° (WNW) 1,666 10.1 -24.4°
Sets 19:27:13 0° 314° (NW) 2,527 10.7 -25.2°
